This is the latest recevied weather packets stored in our database for station/object SP2JGY-2. If no packets are shown the sender has not sent any weather packets the latest 10 day(s).
| Time | Temp. | Humidity | Pressure | Rain* | Wind** | Luminosity | Snow |
|---|---|---|---|---|---|---|---|
| 1777369126 | 10.56° C | 28% | 1026.5 hPa | - | - | - | - |
| 1777368226 | 11.11° C | 23% | 1026.4 hPa | - | - | - | - |
| 1777367326 | 10.56° C | 20% | 1026.5 hPa | - | - | - | - |
| 1777366426 | 10° C | 21% | 1026.6 hPa | - | - | - | - |
| 1777365526 | 10.56° C | 24% | 1026.7 hPa | - | - | - | - |
| 1777364626 | 10.56° C | 24% | 1026.7 hPa | - | - | - | - |
| 1777363726 | 9.44° C | 24% | 1026.9 hPa | - | - | - | - |
| 1777362825 | 8.89° C | 26% | 1026.9 hPa | - | - | - | - |
| 1777361925 | 8.89° C | 29% | 1026.9 hPa | - | - | - | - |
| 1777361025 | 8.33° C | 31% | 1026.9 hPa | - | - | - | - |
| 1777360125 | 7.78° C | 33% | 1027 hPa | - | - | - | - |
| 1777359225 | 7.78° C | 36% | 1027 hPa | - | - | - | - |
| 1777358324 | 6.67° C | 40% | 1027.2 hPa | - | - | - | - |
| 1777357424 | 6.11° C | 49% | 1027.3 hPa | - | - | - | - |
| 1777356524 | 5.56° C | 56% | 1027.3 hPa | - | - | - | - |
| 1777355624 | 4.44° C | 60% | 1027.4 hPa | - | - | - | - |
| 1777354724 | 2.78° C | 66% | 1027.3 hPa | - | - | - | - |
| 1777353824 | 2.78° C | 67% | 1027.2 hPa | - | - | - | - |
| 1777352923 | 1.67° C | 71% | 1027.1 hPa | - | - | - | - |
| 1777352023 | 0.56° C | 74% | 1027.1 hPa | - | - | - | - |
| 1777351123 | 0.56° C | 76% | 1026.9 hPa | - | - | - | - |
| 1777350223 | 0° C | 76% | 1026.9 hPa | - | - | - | - |
| 1777349323 | -0.56° C | 78% | 1026.8 hPa | - | - | - | - |
| 1777348423 | -1.11° C | 78% | 1026.8 hPa | - | - | - | - |
| 1777347522 | -1.67° C | 77% | 1026.9 hPa | - | - | - | - |
* Rain since midnight (hover to see other rain measurements)
** Current wind speed in m/s (hover to see current wind gust speed)